Location: Hall+in+Tirol
(47.2830°N, 11.5170°E)
Time: 10:19:11
(UTC+02:00)

Gurwin Techsat 1B - Visible Passes

Search period start: 30 June 2015 00:00
Search period end: 10 July 2015 00:00
Orbit: 813 x 814 km, 98.5° (Epoch: 29 June)

Date Brightness Start Highest point End Pass type
(mag) Time Alt. Az. Time Alt. Az. Time Alt. Az.
30 Jun 9.9 03:09:36 10° NNE 03:14:28 35° E 03:19:21 10° SSE visible
01 Jul 10.5 02:47:20 10° NE 02:51:29 23° E 02:55:45 10° SE visible
01 Jul 8.9 04:26:39 10° N 04:31:51 54° WNW 04:37:01 10° SW visible
02 Jul 10.9 02:25:32 10° NE 02:28:25 15° E 02:31:31 10° ESE visible
02 Jul 8.6 04:03:49 10° NNE 04:09:10 83° WNW 04:14:30 10° SSW visible
03 Jul 8.9 03:41:06 10° NNE 03:46:24 66° E 03:51:34 11° S visible
04 Jul 9.6 03:18:31 10° NNE 03:23:34 42° E 03:28:31 10° SSE visible
05 Jul 10.2 02:56:08 10° NE 03:00:38 28° E 03:05:11 10° SSE visible
05 Jul 9.2 04:35:45 10° N 04:40:50 46° WNW 04:45:53 10° SW visible
06 Jul 10.8 02:34:05 10° NE 02:37:36 18° E 02:41:16 10° SE visible
06 Jul 8.7 04:12:52 10° N 04:18:11 70° WNW 04:23:28 10° SSW visible
07 Jul 11.1 02:13:02 10° ENE 02:14:27 11° E 02:16:12 10° ESE visible
07 Jul 8.7 03:50:06 10° NNE 03:55:27 78° ESE 04:00:34 11° S visible
08 Jul 9.3 03:27:27 10° NNE 03:32:39 50° E 03:37:31 12° S visible
09 Jul 10.0 03:05:00 10° NNE 03:09:45 33° E 03:14:27 10° SSE visible
09 Jul 9.4 04:44:52 10° N 04:49:49 39° WNW 04:54:42 10° SW visible
